Year,Month,Day,Hour,Minute,Value (Times are PST for temperature in C)
2012,12,02,00,00,7.20
2012,12,02,00,01,7.20
2012,12,02,00,02,7.20
2012,12,02,00,03,7.20
2012,12,02,00,04,7.20
2012,12,02,00,05,7.20
2012,12,02,00,06,7.20
2012,12,02,00,07,7.30
2012,12,02,00,08,7.30
2012,12,02,00,09,7.30
2012,12,02,00,10,7.30
2012,12,02,00,11,7.30
2012,12,02,00,12,7.30
2012,12,02,00,13,7.30
2012,12,02,00,14,7.30
2012,12,02,00,15,7.30
2012,12,02,00,16,7.30
2012,12,02,00,17,7.30
2012,12,02,00,18,7.30
2012,12,02,00,19,7.30
2012,12,02,00,20,7.30
2012,12,02,00,21,7.30
2012,12,02,00,22,7.30
2012,12,02,00,23,7.30
2012,12,02,00,24,7.30
2012,12,02,00,25,7.30
2012,12,02,00,26,7.30
2012,12,02,00,27,7.30
2012,12,02,00,28,7.30
2012,12,02,00,29,7.30
2012,12,02,00,30,7.30
2012,12,02,00,31,7.30
2012,12,02,00,32,7.30
2012,12,02,00,33,7.30
2012,12,02,00,34,7.30
2012,12,02,00,35,7.30
2012,12,02,00,36,7.30
2012,12,02,00,37,7.30
2012,12,02,00,38,7.30
2012,12,02,00,39,7.30
2012,12,02,00,40,7.30
2012,12,02,00,41,7.30
2012,12,02,00,42,7.30
2012,12,02,00,43,7.30
2012,12,02,00,44,7.30
2012,12,02,00,45,7.30
2012,12,02,00,46,7.30
2012,12,02,00,47,7.30
2012,12,02,00,48,7.30
2012,12,02,00,49,7.30
2012,12,02,00,50,7.30
2012,12,02,00,51,7.30
2012,12,02,00,52,7.30
2012,12,02,00,53,7.30
2012,12,02,00,54,7.30
2012,12,02,00,55,7.30
2012,12,02,00,56,7.30
2012,12,02,00,57,7.30
2012,12,02,00,58,7.30
2012,12,02,00,59,7.30
2012,12,02,01,00,7.30
2012,12,02,01,01,7.30
2012,12,02,01,02,7.30
2012,12,02,01,03,7.30
2012,12,02,01,04,7.30
2012,12,02,01,05,7.30
2012,12,02,01,06,7.30
2012,12,02,01,07,7.30
2012,12,02,01,08,7.30
2012,12,02,01,09,7.30
2012,12,02,01,10,7.30
2012,12,02,01,11,7.30
2012,12,02,01,12,7.30
2012,12,02,01,13,7.30
2012,12,02,01,14,7.30
2012,12,02,01,15,7.30
2012,12,02,01,16,7.30
2012,12,02,01,17,7.30
2012,12,02,01,18,7.30
2012,12,02,01,19,7.30
2012,12,02,01,20,7.30
2012,12,02,01,21,7.30
2012,12,02,01,22,7.30
2012,12,02,01,23,7.30
2012,12,02,01,24,7.30
2012,12,02,01,25,7.30
2012,12,02,01,26,7.30
2012,12,02,01,27,7.30
2012,12,02,01,28,7.30
2012,12,02,01,29,7.30
2012,12,02,01,30,7.30
2012,12,02,01,31,7.30
2012,12,02,01,32,7.30
2012,12,02,01,33,7.30
2012,12,02,01,34,7.30
2012,12,02,01,35,7.30
2012,12,02,01,36,7.30
2012,12,02,01,37,7.30
2012,12,02,01,38,7.30
2012,12,02,01,39,7.30
2012,12,02,01,40,7.30
2012,12,02,01,41,7.30
2012,12,02,01,42,7.30
2012,12,02,01,43,7.30
2012,12,02,01,44,7.30
2012,12,02,01,45,7.30
2012,12,02,01,46,7.30
2012,12,02,01,47,7.30
2012,12,02,01,48,7.30
2012,12,02,01,49,7.30
2012,12,02,01,50,7.30
2012,12,02,01,51,7.30
2012,12,02,01,52,7.30
2012,12,02,01,53,7.30
2012,12,02,01,54,7.40
2012,12,02,01,55,7.40
2012,12,02,01,56,7.40
2012,12,02,01,57,7.40
2012,12,02,01,58,7.40
2012,12,02,01,59,7.40
2012,12,02,02,00,7.40
2012,12,02,02,01,7.40
2012,12,02,02,02,7.40
2012,12,02,02,03,7.40
2012,12,02,02,04,7.30
2012,12,02,02,05,7.30
2012,12,02,02,06,7.30
2012,12,02,02,07,7.30
2012,12,02,02,08,7.30
2012,12,02,02,09,7.30
2012,12,02,02,10,7.20
2012,12,02,02,11,7.20
2012,12,02,02,12,7.20
2012,12,02,02,13,7.20
2012,12,02,02,14,7.20
2012,12,02,02,15,7.20
2012,12,02,02,16,7.10
2012,12,02,02,17,7.10
2012,12,02,02,18,7.10
2012,12,02,02,19,7.10
2012,12,02,02,20,7.10
2012,12,02,02,21,7.10
2012,12,02,02,22,7.00
2012,12,02,02,23,7.00
2012,12,02,02,24,7.00
2012,12,02,02,25,7.00
2012,12,02,02,26,7.00
2012,12,02,02,27,6.90
2012,12,02,02,28,6.90
2012,12,02,02,29,6.90
2012,12,02,02,30,6.90
2012,12,02,02,31,6.90
2012,12,02,02,32,6.90
2012,12,02,02,33,6.90
2012,12,02,02,34,6.90
2012,12,02,02,35,6.90
2012,12,02,02,36,6.90
2012,12,02,02,37,6.90
2012,12,02,02,38,6.90
2012,12,02,02,39,6.90
2012,12,02,02,40,6.90
2012,12,02,02,41,6.90
2012,12,02,02,42,6.90
2012,12,02,02,43,6.90
2012,12,02,02,44,6.90
2012,12,02,02,45,6.90
2012,12,02,02,46,6.90
2012,12,02,02,47,6.90
2012,12,02,02,48,6.90
2012,12,02,02,49,6.90
2012,12,02,02,50,6.90
2012,12,02,02,51,6.90
2012,12,02,02,52,6.80
2012,12,02,02,53,6.80
2012,12,02,02,54,6.80
2012,12,02,02,55,6.80
2012,12,02,02,56,6.80
2012,12,02,02,57,6.80
2012,12,02,02,58,6.80
2012,12,02,02,59,6.80
2012,12,02,03,00,6.70
2012,12,02,03,01,6.70
2012,12,02,03,02,6.70
2012,12,02,03,03,6.70
2012,12,02,03,04,6.70
2012,12,02,03,05,6.70
2012,12,02,03,06,6.70
2012,12,02,03,07,6.70
2012,12,02,03,08,6.70
2012,12,02,03,09,6.70
2012,12,02,03,10,6.70
2012,12,02,03,11,6.60
2012,12,02,03,12,6.60
2012,12,02,03,13,6.60
2012,12,02,03,14,6.60
2012,12,02,03,15,6.60
2012,12,02,03,16,6.60
2012,12,02,03,17,6.60
2012,12,02,03,18,6.60
2012,12,02,03,19,6.60
2012,12,02,03,20,6.60
2012,12,02,03,21,6.60
2012,12,02,03,22,6.60
2012,12,02,03,23,6.60
2012,12,02,03,24,6.60
2012,12,02,03,25,6.60
2012,12,02,03,26,6.60
2012,12,02,03,27,6.60
2012,12,02,03,28,6.70
2012,12,02,03,29,6.70
2012,12,02,03,30,6.70
2012,12,02,03,31,6.60
2012,12,02,03,32,6.60
2012,12,02,03,33,6.60
2012,12,02,03,34,6.60
2012,12,02,03,35,6.60
2012,12,02,03,36,6.60
2012,12,02,03,37,6.60
2012,12,02,03,38,6.60
2012,12,02,03,39,6.60
2012,12,02,03,40,6.60
2012,12,02,03,41,6.60
2012,12,02,03,42,6.60
2012,12,02,03,43,6.60
2012,12,02,03,44,6.60
2012,12,02,03,45,6.60
2012,12,02,03,46,6.60
2012,12,02,03,47,6.60
2012,12,02,03,48,6.60
2012,12,02,03,49,6.60
2012,12,02,03,50,6.60
2012,12,02,03,51,6.60
2012,12,02,03,52,6.60
2012,12,02,03,53,6.60
2012,12,02,03,54,6.60
2012,12,02,03,55,6.60
2012,12,02,03,56,6.60
2012,12,02,03,57,6.60
2012,12,02,03,58,6.60
2012,12,02,03,59,6.60
2012,12,02,04,00,6.60
2012,12,02,04,01,6.60
2012,12,02,04,02,6.50
2012,12,02,04,03,6.50
2012,12,02,04,04,6.50
2012,12,02,04,05,6.50
2012,12,02,04,06,6.40
2012,12,02,04,07,6.40
2012,12,02,04,08,6.40
2012,12,02,04,09,6.40
2012,12,02,04,10,6.40
2012,12,02,04,11,6.40
2012,12,02,04,12,6.40
2012,12,02,04,13,6.40
2012,12,02,04,14,6.40
2012,12,02,04,15,6.40
2012,12,02,04,16,6.40
2012,12,02,04,17,6.40
2012,12,02,04,18,6.40
2012,12,02,04,19,6.40
2012,12,02,04,20,6.40
2012,12,02,04,21,6.40
2012,12,02,04,22,6.40
2012,12,02,04,23,6.40
2012,12,02,04,24,6.40
2012,12,02,04,25,6.40
2012,12,02,04,26,6.40
2012,12,02,04,27,6.40
2012,12,02,04,28,6.40
2012,12,02,04,29,6.40
2012,12,02,04,30,6.40
2012,12,02,04,31,6.40
2012,12,02,04,32,6.40
2012,12,02,04,33,6.40
2012,12,02,04,34,6.40
2012,12,02,04,35,6.40
2012,12,02,04,36,6.40
2012,12,02,04,37,6.40
2012,12,02,04,38,6.40
2012,12,02,04,39,6.40
2012,12,02,04,40,6.40
2012,12,02,04,41,6.40
2012,12,02,04,42,6.40
2012,12,02,04,43,6.40
2012,12,02,04,44,6.40
2012,12,02,04,45,6.40
2012,12,02,04,46,6.40
2012,12,02,04,47,6.40
2012,12,02,04,48,6.30
2012,12,02,04,49,6.30
2012,12,02,04,50,6.30
2012,12,02,04,51,6.30
2012,12,02,04,52,6.30
2012,12,02,04,53,6.30
2012,12,02,04,54,6.20
2012,12,02,04,55,6.20
2012,12,02,04,56,6.20
2012,12,02,04,57,6.20
2012,12,02,04,58,6.20
2012,12,02,04,59,6.20
2012,12,02,05,00,6.20
2012,12,02,05,01,6.20
2012,12,02,05,02,6.10
2012,12,02,05,03,6.10
2012,12,02,05,04,6.10
2012,12,02,05,05,6.10
2012,12,02,05,06,6.10
2012,12,02,05,07,6.10
2012,12,02,05,08,6.10
2012,12,02,05,09,6.10
2012,12,02,05,10,6.10
2012,12,02,05,11,6.10
2012,12,02,05,12,6.10
2012,12,02,05,13,6.10
2012,12,02,05,14,6.10
2012,12,02,05,15,6.10
2012,12,02,05,16,6.10
2012,12,02,05,17,6.10
2012,12,02,05,18,6.00
2012,12,02,05,19,6.00
2012,12,02,05,20,6.00
2012,12,02,05,21,6.00
2012,12,02,05,22,6.00
2012,12,02,05,23,5.90
2012,12,02,05,24,5.90
2012,12,02,05,25,5.90
2012,12,02,05,26,5.90
2012,12,02,05,27,5.90
2012,12,02,05,28,5.90
2012,12,02,05,29,5.90
2012,12,02,05,30,5.90
2012,12,02,05,31,5.80
2012,12,02,05,32,5.80
2012,12,02,05,33,5.80
2012,12,02,05,34,5.80
2012,12,02,05,35,5.80
2012,12,02,05,36,5.80
2012,12,02,05,37,5.80
2012,12,02,05,38,5.80
2012,12,02,05,39,5.80
2012,12,02,05,40,5.80
2012,12,02,05,41,5.70
2012,12,02,05,42,5.70
2012,12,02,05,43,5.70
2012,12,02,05,44,5.70
2012,12,02,05,45,5.70
2012,12,02,05,46,5.70
2012,12,02,05,47,5.70
2012,12,02,05,48,5.70
2012,12,02,05,49,5.70
2012,12,02,05,50,5.70
2012,12,02,05,51,5.60
2012,12,02,05,52,5.60
2012,12,02,05,53,5.60
2012,12,02,05,54,5.60
2012,12,02,05,55,5.60
2012,12,02,05,56,5.60
2012,12,02,05,57,5.60
2012,12,02,05,58,5.50
2012,12,02,05,59,5.50
2012,12,02,06,00,5.50
2012,12,02,06,01,5.50
2012,12,02,06,02,5.40
2012,12,02,06,03,5.40
2012,12,02,06,04,5.40
2012,12,02,06,05,5.40
2012,12,02,06,06,5.30
2012,12,02,06,07,5.30
2012,12,02,06,08,5.30
2012,12,02,06,09,5.30
2012,12,02,06,10,5.30
2012,12,02,06,11,5.30
2012,12,02,06,12,5.30
2012,12,02,06,13,5.30
2012,12,02,06,14,5.30
2012,12,02,06,15,5.20
2012,12,02,06,16,5.20
2012,12,02,06,17,5.20
2012,12,02,06,18,5.20
2012,12,02,06,19,5.20
2012,12,02,06,20,5.20
2012,12,02,06,21,5.20
2012,12,02,06,22,5.20
2012,12,02,06,23,5.20
2012,12,02,06,24,5.20
2012,12,02,06,25,5.20
2012,12,02,06,26,5.20
2012,12,02,06,27,5.10
2012,12,02,06,28,5.10
2012,12,02,06,29,5.10
2012,12,02,06,30,5.10
2012,12,02,06,31,5.10
2012,12,02,06,32,5.10
2012,12,02,06,33,5.10
2012,12,02,06,34,5.10
2012,12,02,06,35,5.00
2012,12,02,06,36,5.00
2012,12,02,06,37,5.00
2012,12,02,06,38,5.00
2012,12,02,06,39,4.90
2012,12,02,06,40,4.90
2012,12,02,06,41,4.90
2012,12,02,06,42,4.90
2012,12,02,06,43,4.90
2012,12,02,06,44,4.90
2012,12,02,06,45,4.90
2012,12,02,06,46,4.80
2012,12,02,06,47,4.80
2012,12,02,06,48,4.80
2012,12,02,06,49,4.80
2012,12,02,06,50,4.80
2012,12,02,06,51,4.80
2012,12,02,06,52,4.80
2012,12,02,06,53,4.80
2012,12,02,06,54,4.80
2012,12,02,06,55,4.80
2012,12,02,06,56,4.70
2012,12,02,06,57,4.70
2012,12,02,06,58,4.70
2012,12,02,06,59,4.70
2012,12,02,07,00,4.70
2012,12,02,07,01,4.70
2012,12,02,07,02,4.70
2012,12,02,07,03,4.70
2012,12,02,07,04,4.70
2012,12,02,07,05,4.70
2012,12,02,07,06,4.60
2012,12,02,07,07,4.60
2012,12,02,07,08,4.60
2012,12,02,07,09,4.60
2012,12,02,07,10,4.60
2012,12,02,07,11,4.60
2012,12,02,07,12,4.60
2012,12,02,07,13,4.60
2012,12,02,07,14,4.60
2012,12,02,07,15,4.60
2012,12,02,07,16,4.60
2012,12,02,07,17,4.60
2012,12,02,07,18,4.60
2012,12,02,07,19,4.60
2012,12,02,07,20,4.50
2012,12,02,07,21,4.50
2012,12,02,07,22,4.50
2012,12,02,07,23,4.50
2012,12,02,07,24,4.40
2012,12,02,07,25,4.40
2012,12,02,07,26,4.40
2012,12,02,07,27,4.40
2012,12,02,07,28,4.30
2012,12,02,07,29,4.30
2012,12,02,07,30,4.30
2012,12,02,07,31,4.30
2012,12,02,07,32,4.30
2012,12,02,07,33,4.30
2012,12,02,07,34,4.30
2012,12,02,07,35,4.20
2012,12,02,07,36,4.20
2012,12,02,07,37,4.20
2012,12,02,07,38,4.20
2012,12,02,07,39,4.20
2012,12,02,07,40,4.20
2012,12,02,07,41,4.20
2012,12,02,07,42,4.20
2012,12,02,07,43,4.20
2012,12,02,07,44,4.10
2012,12,02,07,45,4.10
2012,12,02,07,46,4.10
2012,12,02,07,47,4.20
2012,12,02,07,48,4.20
2012,12,02,07,49,4.20
2012,12,02,07,50,4.20
2012,12,02,07,51,4.20
2012,12,02,07,52,4.20
2012,12,02,07,53,4.20
2012,12,02,07,54,4.20
2012,12,02,07,55,4.20
2012,12,02,07,56,4.20
2012,12,02,07,57,4.20
2012,12,02,07,58,4.20
2012,12,02,07,59,4.20
2012,12,02,08,00,4.20
2012,12,02,08,01,4.10
2012,12,02,08,02,4.10
2012,12,02,08,03,4.10
2012,12,02,08,04,4.10
2012,12,02,08,05,4.10
2012,12,02,08,06,4.10
2012,12,02,08,07,4.10
2012,12,02,08,08,4.10
2012,12,02,08,09,4.00
2012,12,02,08,10,4.00
2012,12,02,08,11,4.00
2012,12,02,08,12,4.00
2012,12,02,08,13,3.90
2012,12,02,08,14,3.90
2012,12,02,08,15,3.90
2012,12,02,08,16,3.90
2012,12,02,08,17,3.90
2012,12,02,08,18,3.90
2012,12,02,08,19,3.90
2012,12,02,08,20,3.90
2012,12,02,08,21,3.90
2012,12,02,08,22,3.90
2012,12,02,08,23,3.90
2012,12,02,08,24,3.90
2012,12,02,08,25,3.90
2012,12,02,08,26,3.90
2012,12,02,08,27,3.90
2012,12,02,08,28,3.90
2012,12,02,08,29,3.90
2012,12,02,08,30,3.90
2012,12,02,08,31,3.90
2012,12,02,08,32,3.90
2012,12,02,08,33,3.90
2012,12,02,08,34,3.90
2012,12,02,08,35,3.90
2012,12,02,08,36,3.90
2012,12,02,08,37,3.90
2012,12,02,08,38,3.90
2012,12,02,08,39,4.00
2012,12,02,08,40,4.00
2012,12,02,08,41,4.10
2012,12,02,08,42,4.10
2012,12,02,08,43,4.10
2012,12,02,08,44,4.10
2012,12,02,08,45,4.20
2012,12,02,08,46,4.20
2012,12,02,08,47,4.20
2012,12,02,08,48,4.30
2012,12,02,08,49,4.30
2012,12,02,08,50,4.30
2012,12,02,08,51,4.40
2012,12,02,08,52,4.40
2012,12,02,08,53,4.40
2012,12,02,08,54,4.40
2012,12,02,08,55,4.40
2012,12,02,08,56,4.40
2012,12,02,08,57,4.50
2012,12,02,08,58,4.50
2012,12,02,08,59,4.60
2012,12,02,09,00,4.60
2012,12,02,09,01,4.60
2012,12,02,09,02,4.60
2012,12,02,09,03,4.60
2012,12,02,09,04,4.60
2012,12,02,09,05,4.60
2012,12,02,09,06,4.70
2012,12,02,09,07,4.70
2012,12,02,09,08,4.70
2012,12,02,09,09,4.70
2012,12,02,09,10,4.70
2012,12,02,09,11,4.70
2012,12,02,09,12,4.70
2012,12,02,09,13,4.70
2012,12,02,09,14,4.70
2012,12,02,09,15,4.70
2012,12,02,09,16,4.70
2012,12,02,09,17,4.70
2012,12,02,09,18,4.70
2012,12,02,09,19,4.70
2012,12,02,09,20,4.70
2012,12,02,09,21,4.70
2012,12,02,09,22,4.70
2012,12,02,09,23,4.60
2012,12,02,09,24,4.60
2012,12,02,09,25,4.60
2012,12,02,09,26,4.60
2012,12,02,09,27,4.70
2012,12,02,09,28,4.70
2012,12,02,09,29,4.70
2012,12,02,09,30,4.70
2012,12,02,09,31,4.70
2012,12,02,09,32,4.70
2012,12,02,09,33,4.70
2012,12,02,09,34,4.80
2012,12,02,09,35,4.80
2012,12,02,09,36,4.80
2012,12,02,09,37,4.80
2012,12,02,09,38,4.80
2012,12,02,09,39,4.80
2012,12,02,09,40,4.80
2012,12,02,09,41,4.80
2012,12,02,09,42,4.80
2012,12,02,09,43,4.80
2012,12,02,09,44,4.80
2012,12,02,09,45,4.80
2012,12,02,09,46,4.80
2012,12,02,09,47,4.80
2012,12,02,09,48,4.80
2012,12,02,09,49,4.90
2012,12,02,09,50,4.90
2012,12,02,09,51,4.90
2012,12,02,09,52,4.90
2012,12,02,09,53,4.90
2012,12,02,09,54,4.90
2012,12,02,09,55,5.00
2012,12,02,09,56,5.00
2012,12,02,09,57,5.10
2012,12,02,09,58,5.10
2012,12,02,09,59,5.10
2012,12,02,10,00,5.10
2012,12,02,10,01,5.20
2012,12,02,10,02,5.20
2012,12,02,10,03,5.20
2012,12,02,10,04,5.20
2012,12,02,10,05,5.20
2012,12,02,10,06,5.30
2012,12,02,10,07,5.30
2012,12,02,10,08,5.30
2012,12,02,10,09,5.30
2012,12,02,10,10,5.30
2012,12,02,10,11,5.30
2012,12,02,10,12,5.40
2012,12,02,10,13,5.40
2012,12,02,10,14,5.40
2012,12,02,10,15,5.50
2012,12,02,10,16,5.50
2012,12,02,10,17,5.60
2012,12,02,10,18,5.60
2012,12,02,10,19,5.60
2012,12,02,10,20,5.60
2012,12,02,10,21,5.70
2012,12,02,10,22,5.70
2012,12,02,10,23,5.70
2012,12,02,10,24,5.70
2012,12,02,10,25,5.70
2012,12,02,10,26,5.80
2012,12,02,10,27,5.80
2012,12,02,10,28,5.80
2012,12,02,10,29,5.80
2012,12,02,10,30,5.90
2012,12,02,10,31,5.90
2012,12,02,10,32,5.90
2012,12,02,10,33,5.90
2012,12,02,10,34,6.00
2012,12,02,10,35,6.00
2012,12,02,10,36,6.10
2012,12,02,10,37,6.10
2012,12,02,10,38,6.20
2012,12,02,10,39,6.20
2012,12,02,10,40,6.30
2012,12,02,10,41,6.30
2012,12,02,10,42,6.30
2012,12,02,10,43,6.30
2012,12,02,10,44,6.30
2012,12,02,10,45,6.40
2012,12,02,10,46,6.40
2012,12,02,10,47,6.40
2012,12,02,10,48,6.50
2012,12,02,10,49,6.50
2012,12,02,10,50,6.50
2012,12,02,10,51,6.60
2012,12,02,10,52,6.60
2012,12,02,10,53,6.60
2012,12,02,10,54,6.60
2012,12,02,10,55,6.60
2012,12,02,10,56,6.70
2012,12,02,10,57,6.70
2012,12,02,10,58,6.70
2012,12,02,10,59,6.70
2012,12,02,11,00,6.70
2012,12,02,11,01,6.70
2012,12,02,11,02,6.70
2012,12,02,11,03,6.70
2012,12,02,11,04,6.70
2012,12,02,11,05,6.70
2012,12,02,11,06,6.70
2012,12,02,11,07,6.70
2012,12,02,11,08,6.70
2012,12,02,11,09,6.70
2012,12,02,11,10,6.70
2012,12,02,11,11,6.70
2012,12,02,11,12,6.70
2012,12,02,11,13,6.80
2012,12,02,11,14,6.80
2012,12,02,11,15,6.80
2012,12,02,11,16,6.80
2012,12,02,11,17,6.80
2012,12,02,11,18,6.90
2012,12,02,11,19,6.90
2012,12,02,11,20,6.90
2012,12,02,11,21,7.00
2012,12,02,11,22,7.00
2012,12,02,11,23,7.10
2012,12,02,11,24,7.10
2012,12,02,11,25,7.20
2012,12,02,11,26,7.20
2012,12,02,11,27,7.30
2012,12,02,11,28,7.30
2012,12,02,11,29,7.40
2012,12,02,11,30,7.40
2012,12,02,11,31,7.40
2012,12,02,11,32,7.50
2012,12,02,11,33,7.50
2012,12,02,11,34,7.60
2012,12,02,11,35,7.70
2012,12,02,11,36,7.70
2012,12,02,11,37,7.80
2012,12,02,11,38,7.80
2012,12,02,11,39,7.80
2012,12,02,11,40,7.80
2012,12,02,11,41,7.80
2012,12,02,11,42,7.90
2012,12,02,11,43,7.90
2012,12,02,11,44,7.90
2012,12,02,11,45,7.90
2012,12,02,11,46,7.90
2012,12,02,11,47,7.90
2012,12,02,11,48,7.90
2012,12,02,11,49,7.90
2012,12,02,11,50,8.00
2012,12,02,11,51,8.00
2012,12,02,11,52,8.10
2012,12,02,11,53,8.10
2012,12,02,11,54,8.10
2012,12,02,11,55,8.20
2012,12,02,11,56,8.20
2012,12,02,11,57,8.20
2012,12,02,11,58,8.20
2012,12,02,11,59,8.20
2012,12,02,12,00,8.30
2012,12,02,12,01,8.30
2012,12,02,12,02,8.30
2012,12,02,12,03,8.30
2012,12,02,12,04,8.30
2012,12,02,12,05,8.40
2012,12,02,12,06,8.30
2012,12,02,12,07,8.40
2012,12,02,12,08,8.40
2012,12,02,12,09,8.40
2012,12,02,12,10,8.40
2012,12,02,12,11,8.50
2012,12,02,12,12,8.50
2012,12,02,12,13,8.50
2012,12,02,12,14,8.50
2012,12,02,12,15,8.50
2012,12,02,12,16,8.50
2012,12,02,12,17,8.60
2012,12,02,12,18,8.60
2012,12,02,12,19,8.60
2012,12,02,12,20,8.60
2012,12,02,12,21,8.60
2012,12,02,12,22,8.60
2012,12,02,12,23,8.60
2012,12,02,12,24,8.60
2012,12,02,12,25,8.70
2012,12,02,12,26,8.70
2012,12,02,12,27,8.70
2012,12,02,12,28,8.70
2012,12,02,12,29,8.70
2012,12,02,12,30,8.70
2012,12,02,12,31,8.80
2012,12,02,12,32,8.80
2012,12,02,12,33,8.80
2012,12,02,12,34,8.80
2012,12,02,12,35,8.80
2012,12,02,12,36,8.80
2012,12,02,12,37,8.70
2012,12,02,12,38,8.70
2012,12,02,12,39,8.70
2012,12,02,12,40,8.70
2012,12,02,12,41,8.70
2012,12,02,12,42,8.70
2012,12,02,12,43,8.70
2012,12,02,12,44,8.70
2012,12,02,12,45,8.80
2012,12,02,12,46,8.80
2012,12,02,12,47,8.80
2012,12,02,12,48,8.80
2012,12,02,12,49,8.80
2012,12,02,12,50,8.80
2012,12,02,12,51,8.80
2012,12,02,12,52,8.80
2012,12,02,12,53,8.80
2012,12,02,12,54,8.90
2012,12,02,12,55,8.90
2012,12,02,12,56,8.90
2012,12,02,12,57,9.00
2012,12,02,12,58,9.10
2012,12,02,12,59,9.10
2012,12,02,13,00,9.20
2012,12,02,13,01,9.20
2012,12,02,13,02,9.20
2012,12,02,13,03,9.30
2012,12,02,13,04,9.30
2012,12,02,13,05,9.30
2012,12,02,13,06,9.30
2012,12,02,13,07,9.30
2012,12,02,13,08,9.30
2012,12,02,13,09,9.30
2012,12,02,13,10,9.40
2012,12,02,13,11,9.40
2012,12,02,13,12,9.40
2012,12,02,13,13,9.40
2012,12,02,13,14,9.40
2012,12,02,13,15,9.40
2012,12,02,13,16,9.40
2012,12,02,13,17,9.50
2012,12,02,13,18,9.50
2012,12,02,13,19,9.50
2012,12,02,13,20,9.60
2012,12,02,13,21,9.60
2012,12,02,13,22,9.60
2012,12,02,13,23,9.70
2012,12,02,13,24,9.70
2012,12,02,13,25,9.70
2012,12,02,13,26,9.70
2012,12,02,13,27,9.70
2012,12,02,13,28,9.70
2012,12,02,13,29,9.80
2012,12,02,13,30,9.80
2012,12,02,13,31,9.80
2012,12,02,13,32,9.80
2012,12,02,13,33,9.90
2012,12,02,13,34,9.90
2012,12,02,13,35,9.90
2012,12,02,13,36,10.00
2012,12,02,13,37,10.00
2012,12,02,13,38,10.00
2012,12,02,13,39,10.10
2012,12,02,13,40,10.10
2012,12,02,13,41,10.20
2012,12,02,13,42,10.20
2012,12,02,13,43,10.20
2012,12,02,13,44,10.30
2012,12,02,13,45,10.30
2012,12,02,13,46,10.30
2012,12,02,13,47,10.30
2012,12,02,13,48,10.30
2012,12,02,13,49,10.30
2012,12,02,13,50,10.30
2012,12,02,13,51,10.30
2012,12,02,13,52,10.30
2012,12,02,13,53,10.30
2012,12,02,13,54,10.30
2012,12,02,13,55,10.20
2012,12,02,13,56,10.20
2012,12,02,13,57,10.20
2012,12,02,13,58,10.20
2012,12,02,13,59,10.20
2012,12,02,14,00,10.10
2012,12,02,14,01,10.10
2012,12,02,14,02,10.10
2012,12,02,14,03,10.10
2012,12,02,14,04,10.00
2012,12,02,14,05,10.00
2012,12,02,14,06,10.00
2012,12,02,14,07,9.90
2012,12,02,14,08,9.90
2012,12,02,14,09,9.90
2012,12,02,14,10,9.90
2012,12,02,14,11,9.90
2012,12,02,14,12,9.90
2012,12,02,14,13,9.80
2012,12,02,14,14,9.80
2012,12,02,14,15,9.80
2012,12,02,14,16,9.80
2012,12,02,14,17,9.80
2012,12,02,14,18,9.80
2012,12,02,14,19,9.80
2012,12,02,14,20,9.70
2012,12,02,14,21,9.70
2012,12,02,14,22,9.70
2012,12,02,14,23,9.70
2012,12,02,14,24,9.60
2012,12,02,14,25,9.60
2012,12,02,14,26,9.50
2012,12,02,14,27,9.50
2012,12,02,14,28,9.40
2012,12,02,14,29,9.40
2012,12,02,14,30,9.30
2012,12,02,14,31,9.20
2012,12,02,14,32,9.20
2012,12,02,14,33,9.20
2012,12,02,14,34,9.10
2012,12,02,14,35,9.10
2012,12,02,14,36,9.00
2012,12,02,14,37,9.00
2012,12,02,14,38,9.00
2012,12,02,14,39,9.00
2012,12,02,14,40,8.90
2012,12,02,14,41,8.90
2012,12,02,14,42,8.90
2012,12,02,14,43,8.90
2012,12,02,14,44,8.90
2012,12,02,14,45,8.80
2012,12,02,14,46,8.80
2012,12,02,14,47,8.80
2012,12,02,14,48,8.80
2012,12,02,14,49,8.70
2012,12,02,14,50,8.70
2012,12,02,14,51,8.60
2012,12,02,14,52,8.60
2012,12,02,14,53,8.60
2012,12,02,14,54,8.60
2012,12,02,14,55,8.60
2012,12,02,14,56,8.60
2012,12,02,14,57,8.60
2012,12,02,14,58,8.60
2012,12,02,14,59,8.50
2012,12,02,15,00,8.50
2012,12,02,15,01,8.50
2012,12,02,15,02,8.40
2012,12,02,15,03,8.40
2012,12,02,15,04,8.40
2012,12,02,15,05,8.40
2012,12,02,15,06,8.30
2012,12,02,15,07,8.30
2012,12,02,15,08,8.30
2012,12,02,15,09,8.30
2012,12,02,15,10,8.30
2012,12,02,15,11,8.30
2012,12,02,15,12,8.30
2012,12,02,15,13,8.30
2012,12,02,15,14,8.30
2012,12,02,15,15,8.30
2012,12,02,15,16,8.30
2012,12,02,15,17,8.30
2012,12,02,15,18,8.30
2012,12,02,15,19,8.30
2012,12,02,15,20,8.30
2012,12,02,15,21,8.30
2012,12,02,15,22,8.30
2012,12,02,15,23,8.30
2012,12,02,15,24,8.30
2012,12,02,15,25,8.30
2012,12,02,15,26,8.30
2012,12,02,15,27,8.30
2012,12,02,15,28,8.30
2012,12,02,15,29,8.20
2012,12,02,15,30,8.20
2012,12,02,15,31,8.20
2012,12,02,15,32,8.20
2012,12,02,15,33,8.20
2012,12,02,15,34,8.20
2012,12,02,15,35,8.20
2012,12,02,15,36,8.20
2012,12,02,15,37,8.20
2012,12,02,15,38,8.20
2012,12,02,15,39,8.20
2012,12,02,15,40,8.20
2012,12,02,15,41,8.20
2012,12,02,15,42,8.20
2012,12,02,15,43,8.20
2012,12,02,15,44,8.10
2012,12,02,15,45,8.10
2012,12,02,15,46,8.10
2012,12,02,15,47,8.10
2012,12,02,15,48,8.10
2012,12,02,15,49,8.10
2012,12,02,15,50,8.10
2012,12,02,15,51,8.10
2012,12,02,15,52,8.10
2012,12,02,15,53,8.10
2012,12,02,15,54,8.10
2012,12,02,15,55,8.10
2012,12,02,15,56,8.10
2012,12,02,15,57,8.10
2012,12,02,15,58,8.10
2012,12,02,15,59,8.00
2012,12,02,16,00,8.00
2012,12,02,16,01,8.00
2012,12,02,16,02,8.00
2012,12,02,16,03,8.00
2012,12,02,16,04,8.00
2012,12,02,16,05,8.00
2012,12,02,16,06,8.00
2012,12,02,16,07,8.00
2012,12,02,16,08,7.90
2012,12,02,16,09,7.90
2012,12,02,16,10,7.90
2012,12,02,16,11,7.90
2012,12,02,16,12,7.90
2012,12,02,16,13,7.90
2012,12,02,16,14,7.90
2012,12,02,16,15,7.90
2012,12,02,16,16,7.90
2012,12,02,16,17,7.90
2012,12,02,16,18,7.90
2012,12,02,16,19,7.90
2012,12,02,16,20,7.90
2012,12,02,16,21,7.80
2012,12,02,16,22,7.80
2012,12,02,16,23,7.80
2012,12,02,16,24,7.80
2012,12,02,16,25,7.80
2012,12,02,16,26,7.80
2012,12,02,16,27,7.80
2012,12,02,16,28,7.80
2012,12,02,16,29,7.80
2012,12,02,16,30,7.70
2012,12,02,16,31,7.70
2012,12,02,16,32,7.70
2012,12,02,16,33,7.70
2012,12,02,16,34,7.70
2012,12,02,16,35,7.70
2012,12,02,16,36,7.60
2012,12,02,16,37,7.60
2012,12,02,16,38,7.60
2012,12,02,16,39,7.60
2012,12,02,16,40,7.50
2012,12,02,16,41,7.50
2012,12,02,16,42,7.50
2012,12,02,16,43,7.40
2012,12,02,16,44,7.40
2012,12,02,16,45,7.40
2012,12,02,16,46,7.40
2012,12,02,16,47,7.40
2012,12,02,16,48,7.30
2012,12,02,16,49,7.30
2012,12,02,16,50,7.30
2012,12,02,16,51,7.30
2012,12,02,16,52,7.30
2012,12,02,16,53,7.30
2012,12,02,16,54,7.30
2012,12,02,16,55,7.30
2012,12,02,16,56,7.30
2012,12,02,16,57,7.20
2012,12,02,16,58,7.20
2012,12,02,16,59,7.20
2012,12,02,17,00,7.20
2012,12,02,17,01,7.20
2012,12,02,17,02,7.20
2012,12,02,17,03,7.20
2012,12,02,17,04,7.20
2012,12,02,17,05,7.10
2012,12,02,17,06,7.10
2012,12,02,17,07,7.10
2012,12,02,17,08,7.10
2012,12,02,17,09,7.10
2012,12,02,17,10,7.10
2012,12,02,17,11,7.10
2012,12,02,17,12,7.10
2012,12,02,17,13,7.10
2012,12,02,17,14,7.10
2012,12,02,17,15,7.10
2012,12,02,17,16,7.10
2012,12,02,17,17,7.10
2012,12,02,17,18,7.00
2012,12,02,17,19,7.00
2012,12,02,17,20,7.00
2012,12,02,17,21,7.00
2012,12,02,17,22,7.00
2012,12,02,17,23,7.00
2012,12,02,17,24,6.90
2012,12,02,17,25,6.90
2012,12,02,17,26,6.90
2012,12,02,17,27,6.90
2012,12,02,17,28,6.90
2012,12,02,17,29,6.90
2012,12,02,17,30,6.90
2012,12,02,17,31,6.80
2012,12,02,17,32,6.80
2012,12,02,17,33,6.80
2012,12,02,17,34,6.80
2012,12,02,17,35,6.80
2012,12,02,17,36,6.80
2012,12,02,17,37,6.80
2012,12,02,17,38,6.80
2012,12,02,17,39,6.80
2012,12,02,17,40,6.80
2012,12,02,17,41,6.80
2012,12,02,17,42,6.70
2012,12,02,17,43,6.70
2012,12,02,17,44,6.70
2012,12,02,17,45,6.70
2012,12,02,17,46,6.70
2012,12,02,17,47,6.70
2012,12,02,17,48,6.70
2012,12,02,17,49,6.70
2012,12,02,17,50,6.70
2012,12,02,17,51,6.70
2012,12,02,17,52,6.70
2012,12,02,17,53,6.70
2012,12,02,17,54,6.70
2012,12,02,17,55,6.70
2012,12,02,17,56,6.70
2012,12,02,17,57,6.70
2012,12,02,17,58,6.70
2012,12,02,17,59,6.70
2012,12,02,18,00,6.70
2012,12,02,18,01,6.70
2012,12,02,18,02,6.70
2012,12,02,18,03,6.70
2012,12,02,18,04,6.70
2012,12,02,18,05,6.70